TimeCDT,TemperatureF,Dew PointF,Humidity,Sea Level PressureIn,VisibilityMPH,Wind Direction,Wind SpeedMPH,Gust SpeedMPH,PrecipitationIn,Events,Conditions,WindDirDegrees,DateUTC
12:15 AM,24.8,19.4,80,30.28,10.0,Calm,Calm,-,N/A,,Clear,0,2013-03-29 05:15:00
12:35 AM,23.0,19.4,86,30.28,10.0,Calm,Calm,-,N/A,,Clear,0,2013-03-29 05:35:00
12:55 AM,23.0,17.6,80,30.28,10.0,Calm,Calm,-,N/A,,Clear,0,2013-03-29 05:55:00
1:15 AM,21.2,19.4,93,30.28,10.0,Calm,Calm,-,N/A,,Clear,0,2013-03-29 06:15:00
1:35 AM,21.2,17.6,86,30.28,10.0,Calm,Calm,-,N/A,,Clear,0,2013-03-29 06:35:00
1:55 AM,21.2,17.6,86,30.29,10.0,Calm,Calm,-,N/A,,Clear,0,2013-03-29 06:55:00
2:15 AM,19.4,17.6,93,30.29,10.0,Calm,Calm,-,N/A,,Clear,0,2013-03-29 07:15:00
2:35 AM,21.2,17.6,86,30.29,10.0,Calm,Calm,-,N/A,,Clear,0,2013-03-29 07:35:00
2:55 AM,19.4,17.6,93,30.29,10.0,Calm,Calm,-,N/A,,Clear,0,2013-03-29 07:55:00
3:15 AM,19.4,17.6,93,30.29,10.0,Calm,Calm,-,N/A,,Clear,0,2013-03-29 08:15:00
3:35 AM,19.4,17.6,93,30.29,10.0,Calm,Calm,-,N/A,,Clear,0,2013-03-29 08:35:00
3:55 AM,19.4,17.6,93,30.28,10.0,Calm,Calm,-,N/A,,Clear,0,2013-03-29 08:55:00
4:15 AM,17.6,15.8,93,30.28,10.0,Calm,Calm,-,N/A,,Clear,0,2013-03-29 09:15:00
4:35 AM,17.6,15.8,93,30.28,10.0,Calm,Calm,-,N/A,,Clear,0,2013-03-29 09:35:00
4:55 AM,17.6,15.8,93,30.28,10.0,Calm,Calm,-,N/A,,Clear,0,2013-03-29 09:55:00
5:15 AM,17.6,15.8,93,30.28,10.0,Calm,Calm,-,N/A,,Clear,0,2013-03-29 10:15:00
5:35 AM,15.8,15.8,100,30.28,10.0,Calm,Calm,-,N/A,,Clear,0,2013-03-29 10:35:00
5:55 AM,15.8,14.0,93,30.28,10.0,Calm,Calm,-,N/A,,Clear,0,2013-03-29 10:55:00
6:15 AM,15.8,14.0,93,30.28,10.0,Calm,Calm,-,N/A,,Clear,0,2013-03-29 11:15:00
6:35 AM,15.8,14.0,93,30.28,10.0,Calm,Calm,-,N/A,,Clear,0,2013-03-29 11:35:00
6:55 AM,14.0,12.2,93,30.29,10.0,Calm,Calm,-,N/A,,Clear,0,2013-03-29 11:55:00
7:15 AM,15.8,15.8,100,30.29,10.0,Calm,Calm,-,N/A,,Clear,0,2013-03-29 12:15:00
7:35 AM,15.8,14.0,93,30.29,10.0,Calm,Calm,-,N/A,,Clear,0,2013-03-29 12:35:00
7:55 AM,17.6,15.8,93,30.29,10.0,Calm,Calm,-,N/A,,Clear,0,2013-03-29 12:55:00
8:15 AM,19.4,15.8,86,30.29,10.0,Calm,Calm,-,N/A,,Clear,0,2013-03-29 13:15:00
8:35 AM,21.2,15.8,80,30.29,10.0,Calm,Calm,-,N/A,,Clear,0,2013-03-29 13:35:00
8:55 AM,26.6,17.6,69,30.29,10.0,Calm,Calm,-,N/A,,Clear,0,2013-03-29 13:55:00
9:15 AM,28.4,17.6,64,30.29,10.0,Calm,Calm,-,N/A,,Clear,0,2013-03-29 14:15:00
9:35 AM,30.2,17.6,60,30.29,10.0,Calm,Calm,-,N/A,,Clear,0,2013-03-29 14:35:00
9:55 AM,35.6,17.6,48,30.28,10.0,Calm,Calm,-,N/A,,Clear,0,2013-03-29 14:55:00
10:15 AM,39.2,15.8,39,30.28,10.0,Calm,Calm,-,N/A,,Clear,0,2013-03-29 15:15:00
10:35 AM,39.2,15.8,39,30.28,10.0,Calm,Calm,-,N/A,,Clear,0,2013-03-29 15:35:00
10:55 AM,42.8,15.8,34,30.28,10.0,Calm,Calm,-,N/A,,Clear,0,2013-03-29 15:55:00
11:15 AM,44.6,14.0,29,30.27,10.0,Calm,Calm,-,N/A,,Clear,0,2013-03-29 16:15:00
11:55 AM,44.6,12.2,27,30.26,10.0,South,3.5,-,N/A,,Clear,180,2013-03-29 16:55:00
12:15 PM,46.4,12.2,25,30.26,10.0,SSE,3.5,-,N/A,,Clear,160,2013-03-29 17:15:00
12:35 PM,46.4,10.4,23,30.25,10.0,WSW,5.8,-,N/A,,Clear,240,2013-03-29 17:35:00
12:55 PM,46.4,12.2,25,30.25,10.0,WSW,6.9,-,N/A,,Clear,240,2013-03-29 17:55:00
1:15 PM,46.4,12.2,25,30.25,10.0,SSW,4.6,-,N/A,,Scattered Clouds,200,2013-03-29 18:15:00
1:35 PM,48.2,12.2,24,30.24,10.0,WSW,5.8,-,N/A,,Scattered Clouds,240,2013-03-29 18:35:00
1:55 PM,48.2,15.8,27,30.23,10.0,WSW,8.1,-,N/A,,Scattered Clouds,240,2013-03-29 18:55:00
2:15 PM,48.2,15.8,27,30.23,10.0,SW,8.1,-,N/A,,Clear,230,2013-03-29 19:15:00
2:35 PM,48.2,15.8,27,30.22,10.0,SW,6.9,-,N/A,,Mostly Cloudy,220,2013-03-29 19:35:00
2:55 PM,48.2,15.8,27,30.22,10.0,SW,5.8,-,N/A,,Mostly Cloudy,220,2013-03-29 19:55:00
3:15 PM,48.2,15.8,27,30.21,10.0,SSW,8.1,-,N/A,,Mostly Cloudy,210,2013-03-29 20:15:00
3:35 PM,48.2,15.8,27,30.20,10.0,SSW,8.1,-,N/A,,Scattered Clouds,200,2013-03-29 20:35:00
3:55 PM,48.2,15.8,27,30.20,10.0,WSW,8.1,-,N/A,,Scattered Clouds,250,2013-03-29 20:55:00
4:15 PM,48.2,17.6,30,30.20,10.0,SW,9.2,-,N/A,,Mostly Cloudy,230,2013-03-29 21:15:00
4:35 PM,48.2,17.6,30,30.19,10.0,WSW,9.2,-,N/A,,Scattered Clouds,240,2013-03-29 21:35:00
4:55 PM,48.2,17.6,30,30.19,10.0,SW,8.1,-,N/A,,Mostly Cloudy,220,2013-03-29 21:55:00
5:15 PM,48.2,17.6,30,30.18,10.0,WSW,6.9,-,N/A,,Scattered Clouds,240,2013-03-29 22:15:00
5:35 PM,48.2,19.4,32,30.18,10.0,SW,8.1,-,N/A,,Mostly Cloudy,230,2013-03-29 22:35:00
5:55 PM,46.4,19.4,34,30.18,10.0,SW,5.8,-,N/A,,Mostly Cloudy,230,2013-03-29 22:55:00
6:15 PM,46.4,19.4,34,30.18,10.0,SSW,6.9,-,N/A,,Scattered Clouds,210,2013-03-29 23:15:00
6:35 PM,46.4,19.4,34,30.18,10.0,SW,3.5,-,N/A,,Mostly Cloudy,220,2013-03-29 23:35:00
6:55 PM,46.4,21.2,37,30.17,10.0,SW,4.6,-,N/A,,Overcast,220,2013-03-29 23:55:00
7:15 PM,46.4,21.2,37,30.17,10.0,Calm,Calm,-,N/A,,Scattered Clouds,0,2013-03-30 00:15:00
7:35 PM,32.0,-41.8,4,30.17,10.0,Calm,Calm,-,N/A,,Scattered Clouds,0,2013-03-30 00:35:00
7:55 PM,42.8,24.8,49,30.16,10.0,Calm,Calm,-,N/A,,Mostly Cloudy,0,2013-03-30 00:55:00
8:15 PM,42.8,24.8,49,30.16,10.0,Calm,Calm,-,N/A,,Mostly Cloudy,0,2013-03-30 01:15:00
8:35 PM,41.0,24.8,53,30.16,10.0,Calm,Calm,-,N/A,,Mostly Cloudy,0,2013-03-30 01:35:00
8:55 PM,42.8,24.8,49,30.16,10.0,SSW,4.6,-,N/A,,Scattered Clouds,210,2013-03-30 01:55:00
9:15 PM,41.0,23.0,49,30.16,10.0,SSW,3.5,-,N/A,,Clear,200,2013-03-30 02:15:00
9:35 PM,39.2,24.8,56,30.16,10.0,South,3.5,-,N/A,,Clear,180,2013-03-30 02:35:00
9:55 PM,39.2,23.0,52,30.16,10.0,South,4.6,-,N/A,,Clear,180,2013-03-30 02:55:00
10:15 PM,39.2,21.2,49,30.16,10.0,South,3.5,-,N/A,,Clear,180,2013-03-30 03:15:00
10:35 PM,37.4,21.2,52,30.16,10.0,Calm,Calm,-,N/A,,Scattered Clouds,0,2013-03-30 03:35:00
10:55 PM,37.4,21.2,52,30.15,10.0,South,3.5,-,N/A,,Mostly Cloudy,180,2013-03-30 03:55:00
11:15 PM,37.4,23.0,56,30.14,10.0,Calm,Calm,-,N/A,,Overcast,0,2013-03-30 04:15:00
11:35 PM,35.6,24.8,65,30.13,10.0,Calm,Calm,-,N/A,,Scattered Clouds,0,2013-03-30 04:35:00
11:55 PM,35.6,21.2,56,30.13,10.0,South,3.5,-,N/A,,Mostly Cloudy,180,2013-03-30 04:55:00